Погода Hatgal

Погода Hatgal : погода сейчас, прогноз погоды и архив. Всё, что Вы хотите узнать о погоде Hatgal!

Поиск расширенной информации на нашем сайте:

Другие новости

Новости СМИ2

Главная страница сайта

Новости сайта

03.07.2017

Напоминаем, что на нашем специализированном сайте Метеоцентр.Азия вы можете получить высокодетализированные автоматические прогнозы погоды по пунктам России, СНГ и мира в авиационном формате (включающие направление и скорость ветра, видимость, явления погоды, количество и форму облачности, нижнюю и верхнюю границу облачности).


Погода Hatgal - сегодня

Время (UTC), дата Ветер
(°,м/с) 
Видим.   Явления Облачность Т
(°С)
Тd
(°С)
f(%) Тe
(°С)
Pmin
(гПа)
dP
(гПа)
Po
(мм)
O2
(г/м3)
Тmin Tmax R s Состояние
почвы
15 14.10.17 тихо ()   н/о    ясно 
-12 -12  1039.8             
18 14.10.17 180 (Ю) н/о    ясно 
-14.1 -16  1042.9             
21 14.10.17 180 (Ю) н/о    ясно 
-15.2 -17  1044.5  0.5             
00 15.10.17 тихо ()   20000 м    ясно 
-17.1 -17  1047.2  0.8    -11.3      сухой снег
10-40% 
03 15.10.17 230 (ЮЗ) 20000 м    ясно 
-6 -12.5 60 -7  1038.2  0.5             
06 15.10.17 180 (Ю) 20000 м    ясно 
+1 -10.6 42 1031  -1.3             
09 15.10.17 180 (Ю) 20000 м    ясно 
+3.5 -10 36 +3  1028.4  -0.5             
12 15.10.17 270 (З) н/о    ясно 
-6.8 -14.6 54 -8  1036.9  0.2      +4       
15 15.10.17 тихо ()   н/о    ясно 
-6.7 -13.1 60 -7  1037  0.2             
18 15.10.17 230 (ЮЗ) н/о    ясно 
-6.3 -12.1 63 -8  1035.3  -1.1             
21 15.10.17 270 (З) н/о    ясно 
-10.4 -12  1038.4  -0.3             
00 16.10.17 270 (З) 20000 м    ясно 
-11.8 -14  1039.6    -12.1      сухой снег
10-40% 
03 16.10.17 230 (ЮЗ) 20000 м    ясно 
-0.4 -10.3 47 -4  1029.5  -0.6             
06 16.10.17 180 (Ю) 20000 м    ясно 
+7.6 -8 32 +6  1022.8  -0.5             
09 16.10.17 180 (Ю) 20000 м    ясно 
+8.6 -7.7 31 +7  1020.4  -1.3             
12 16.10.17 тихо ()   н/о    ясно 
-0.4 -10.3 47 -0  1028  0.6      +9.6       
15 16.10.17 тихо ()   н/о    ясно 
-3.2 -10.2 58 -3  1030.3  0.1             
18 16.10.17 тихо ()   н/о    ясно 
-4 -10.7 60 -4  1029.8  -1             
21 16.10.17 тихо ()   н/о    ясно 
-8.2 -13.5 66 -8  1033.2             
00 17.10.17 тихо ()   20000 м    ясно 
-8.4 -13.4 67 -8  1034.1  0.6    -9.3      сухой снег
10-40% 
03 17.10.17 230 (ЮЗ) 20000 м    ясно 
+1.6 -5.7 58 +1  1026.9  0.7             
06 17.10.17 тихо ()   20000 м    3/3 1000 м 
[Cu hum]
+8.8 -3.8 41 +9  1020.7  -0.7             
09 17.10.17 020 (С) 20000 м    3/3 1000 м 
[Cu med, cong]
+6.4 -2.8 52 +4  1022.2  -0.2             
12 17.10.17 320 (СЗ) н/о    ясно 
-2 -7.5 66 -5  1029.9      +9.5       
15 17.10.17 270 (З) н/о    ясно 
-3.5 -8.2 70 -5  1031.6  0.4             
Время (UTC), дата Ветер
(°,м/с) 
Видим.   Явления Облачность Т
(°С)
Тd
(°С)
f(%) Тe
(°С)
Pmin
(гПа)
dP
(гПа)
Po
(мм)
O2
(г/м3)
Тmin Tmax R s Состояние
почвы

Для получения пояснительной информации подведите курсор к названию столбца.

ПОГОДА Hatgal - архив

Всё, что Вы хотите узнать о погоде Hatgal - удобно и подробно!

Выберите нужную дату (начиная с 1 января 2015* года) и нажмите кнопку "Найти".
Будут отображены архивные сводки погоды по пункту Hatgal, начиная с указанной даты.


Отображать данные в формате CSV (для использования в таблицах Excel)


Внимание! Наш архив погоды предназначен исключительно для личного некоммерческого использования в познавательных целях. Если Вам необходимы официальные справки о состоянии погоды (для производственных, юридических, коммерческих и т.п. целей), обращайтесь в органы Росгидромета.

*Примечание: данная дата относится к архиву по метеостанциям СССР (Россия, СНГ, Балтия).
Архив по метеостанциям Зарубежной Европы и Азии (кроме Китая) хранится 10 дней, по другим регионам земного шара (Китай, Африка, Америка, Австралия, Океания) - 1 день.

Hatgal - район местоположения метеостанции


Название, широта, долгота, высота метеостанции:
Hatgal 50.4°ш. 100.2°д. 1668 м над ур. моря [Mongolia]

Дополнительная информация

В oтличие oт бoльшинства пoгoдных сайтoв мы публикуем пoдрoбную метеoинфoрмацию в детальнoм прoфессиoнальнoм фoрмате.

Характеристики температуры и влажнoсти вoздуха измеряются на высoте 2 м в тени вдали oт зданий и деревьев.
Скoрoсть ветра измеряется на высoте 10 м (на урoвне рoста челoвека скoрoсть ветра ниже в 1.5-2 раза). Если метеoстанция нахoдится в гoрoде или в лесу, тo скoрoсть ветра занижена на 2-4 м/с пo сравнению с oткрытым местoм. Скoрoсть ветра над акватoриями крупных рек и oзёр, а также на вершинах хoлмoв на 2-5 м/с выше, чем в oбычных услoвиях.
Атмoсфернoе давление в разных тoчках местнoсти мoжет значительнo oтличаться oт давления на метеoстанции, в зависимoсти oт услoвий рельефа (при пoдъёме на 10 м давление пoнижается примернo на 1 мм рт.ст.).